Find Kuiper-00075

NORAD ID: 64822 Int'l Des: 2025-151 Owner: KUIP Country: US Constellation: amazon-leo operational
LEOCIRCULAR

当前视图

正在加载3D地球...

About Kuiper-00075

Kuiper-00075 (NORAD 64822) is a amazon-leo constellation satellite launched Jul 16, 2025 by KUIP of US. It operates in LEO, CIRCULAR orbit with a mass of 490.00 kg.

关于 Kuiper-00075

正在加载描述...

即将过境

Passes for default location (London). Set your location on the main map for personalized predictions.

高度历史

Loading altitude history...

两行轨道根数

1 64822U 25151G 26194.38450481 .00026411 00000-0 55125-3 0 9996
2 64822 51.8646 328.2629 0003058 20.6455 339.4658 15.45345969 55812
Epoch: Jul 13, 2026 • Age: 15 hours

当前状态

高度 433.1 km
远地点 / 近地点 N/A
速度 7.65 km/s
星下点 -0.94°S, 145.54°W
发射日期 Jul 16, 2025
运行时间 0.9 years
类型 internet

技术详情

分类 Payload
质量 490.00 kg
干质量 490.00 kg
总质量 490.00 kg
长度 1.80 m
直径 0.70 m
跨度 5.00 m
形状 Box + 2 pan
制造商 KUIP
平台类型 Kuiper
阶段状态 In Orbit
所有者/国家 KUIP/US

Most Searched